ARG2431 LIPX-LIRN

Flight info

Callsign ARG2431
Flight time 1h 0m
Altitude 19000
Route TUVDE Y922 KOPER/N0451F350 DCT LUMAV DCT EVULI DCT ERIKA
Aircraft B737/M-SDE2E3FGHIRWXY/LB1

Departure

Time 2026-04-21 13:28
Airport Verona Villafranca Valerio Catullo Airport (LIPX)

Arrival

Time 2026-04-21 14:28
Airport Naples International Airport (LIRN)
Time Latitude Longitude Altitude Speed Heading
2026-04-21 13:04 45.40273 10.90554 236 ft 0 kts 135°
2026-04-21 13:21 45.40288 10.90534 236 ft 4 kts 146°
2026-04-21 13:22 45.40312 10.90519 241 ft 4 kts 176°
2026-04-21 13:22 45.40332 10.90526 236 ft 1 kts 225°
2026-04-21 13:22 45.40335 10.90530 236 ft 0 kts 225°
2026-04-21 13:26 45.40321 10.90511 239 ft 7 kts 225°
2026-04-21 13:26 45.40272 10.90441 237 ft 13 kts 232°
2026-04-21 13:27 45.40300 10.90304 236 ft 18 kts 297°
2026-04-21 13:27 45.40359 10.90113 238 ft 24 kts 281°
2026-04-21 13:27 45.40211 10.89785 238 ft 74 kts 226°
2026-04-21 13:27 45.39671 10.88998 237 ft 146 kts 225°
2026-04-21 13:28 45.38849 10.87790 527 ft 180 kts 223°
2026-04-21 13:28 45.37778 10.87047 1577 ft 170 kts 180°
2026-04-21 13:28 45.36650 10.87505 2384 ft 181 kts 143°
2026-04-21 13:28 45.35890 10.89063 2769 ft 211 kts 105°
2026-04-21 13:29 45.35561 10.91234 3162 ft 235 kts 101°
2026-04-21 13:29 45.35251 10.93556 3928 ft 241 kts 101°
2026-04-21 13:29 45.34929 10.95979 4575 ft 259 kts 101°
2026-04-21 13:29 45.34581 10.98541 5444 ft 267 kts 101°
2026-04-21 13:30 45.34217 11.01149 6414 ft 271 kts 101°
2026-04-21 13:30 45.33843 11.03791 7360 ft 275 kts 101°
2026-04-21 13:30 45.33457 11.06484 8276 ft 280 kts 102°
2026-04-21 13:30 45.33061 11.09214 9192 ft 284 kts 102°
2026-04-21 13:31 45.32657 11.11976 10112 ft 286 kts 101°
2026-04-21 13:31 45.32390 11.13805 10762 ft 286 kts 101°
2026-04-21 13:31 45.31937 11.16562 11667 ft 290 kts 107°
2026-04-21 13:31 45.30795 11.20232 12045 ft 326 kts 114°
2026-04-21 13:32 45.29720 11.23216 12229 ft 352 kts 115°
2026-04-21 13:32 45.28948 11.25353 12461 ft 365 kts 116°
2026-04-21 13:32 45.27781 11.28614 13093 ft 374 kts 116°
2026-04-21 13:32 45.26602 11.31947 13824 ft 380 kts 117°
2026-04-21 13:33 45.25416 11.35333 14580 ft 386 kts 116°
2026-04-21 13:33 45.24216 11.38780 15323 ft 393 kts 117°
2026-04-21 13:33 45.23015 11.42238 16048 ft 399 kts 117°
2026-04-21 13:33 45.21780 11.45796 16764 ft 405 kts 117°
2026-04-21 13:34 45.20525 11.49411 17458 ft 411 kts 117°
2026-04-21 13:34 45.19250 11.53072 18115 ft 418 kts 117°
2026-04-21 13:34 45.17947 11.56784 18772 ft 423 kts 119°
2026-04-21 13:34 45.16186 11.60126 19324 ft 426 kts 140°
2026-04-21 13:35 45.13750 11.62445 19982 ft 421 kts 160°
2026-04-21 13:35 45.10985 11.63652 20635 ft 414 kts 178°
2026-04-21 13:35 45.08135 11.63747 21273 ft 408 kts 189°
2026-04-21 13:35 45.05286 11.63512 21874 ft 412 kts 191°
2026-04-21 13:36 45.02407 11.63228 22446 ft 416 kts 191°
2026-04-21 13:36 44.99503 11.62955 23008 ft 421 kts 191°
2026-04-21 13:36 44.96561 11.62706 23550 ft 426 kts 191°
2026-04-21 13:36 44.93591 11.62480 24101 ft 429 kts 190°
2026-04-21 13:37 44.90629 11.62266 24624 ft 433 kts 191°
2026-04-21 13:37 44.87603 11.62049 25156 ft 436 kts 191°
2026-04-21 13:37 44.84556 11.61898 25678 ft 443 kts 186°
2026-04-21 13:37 44.81443 11.62370 26098 ft 457 kts 176°
2026-04-21 13:38 44.78338 11.63580 26545 ft 470 kts 165°
2026-04-21 13:38 44.75317 11.65471 27028 ft 477 kts 160°
2026-04-21 13:38 44.72331 11.67533 27460 ft 481 kts 159°
2026-04-21 13:38 44.69326 11.69665 27856 ft 485 kts 159°
2026-04-21 13:39 44.66308 11.71808 28255 ft 488 kts 159°
2026-04-21 13:39 44.63259 11.73952 28641 ft 490 kts 159°
2026-04-21 13:39 44.60193 11.76083 29022 ft 493 kts 159°
2026-04-21 13:39 44.57101 11.78208 29357 ft 496 kts 160°
2026-04-21 13:40 44.54032 11.80302 29679 ft 499 kts 160°
2026-04-21 13:40 44.50902 11.82427 30033 ft 501 kts 160°
2026-04-21 13:40 44.46694 11.85277 30480 ft 504 kts 160°
2026-04-21 13:40 44.44603 11.86693 30737 ft 504 kts 160°
2026-04-21 13:41 44.41451 11.88828 31203 ft 501 kts 160°
2026-04-21 13:41 44.38318 11.90948 31699 ft 499 kts 159°
2026-04-21 13:41 44.35194 11.93059 32121 ft 497 kts 160°
2026-04-21 13:41 44.32071 11.95166 32482 ft 497 kts 159°
2026-04-21 13:42 44.28952 11.97266 32823 ft 497 kts 159°
2026-04-21 13:42 44.25841 11.99359 33212 ft 496 kts 159°
2026-04-21 13:42 44.22735 12.01447 33637 ft 493 kts 159°
2026-04-21 13:42 44.19645 12.03521 33971 ft 493 kts 159°
2026-04-21 13:43 44.16560 12.05590 34320 ft 492 kts 159°
2026-04-21 13:43 44.13659 12.07534 34646 ft 491 kts 159°
2026-04-21 13:43 44.10581 12.09593 34985 ft 490 kts 159°
2026-04-21 13:43 44.07495 12.11654 34980 ft 495 kts 159°
2026-04-21 13:44 44.01294 12.15788 35001 ft 493 kts 159°
2026-04-21 13:44 43.95138 12.19890 35000 ft 488 kts 159°
2026-04-21 13:45 43.89057 12.23929 34994 ft 488 kts 159°
2026-04-21 13:45 43.82937 12.27982 35004 ft 486 kts 159°
2026-04-21 13:46 43.76828 12.32020 34983 ft 487 kts 159°
2026-04-21 13:46 43.70730 12.36042 34993 ft 486 kts 159°
2026-04-21 13:47 43.64621 12.40062 35007 ft 486 kts 160°
2026-04-21 13:47 43.58506 12.44075 35005 ft 487 kts 160°
2026-04-21 13:48 43.52374 12.48090 34997 ft 488 kts 160°
2026-04-21 13:48 43.46225 12.52108 34984 ft 490 kts 160°
2026-04-21 13:49 43.40064 12.56127 34987 ft 490 kts 160°
2026-04-21 13:49 43.33897 12.60140 34982 ft 491 kts 160°
2026-04-21 13:50 43.27718 12.64151 34972 ft 491 kts 160°
2026-04-21 13:50 43.21545 12.68149 34971 ft 490 kts 160°
2026-04-21 13:51 43.15407 12.72116 34957 ft 491 kts 160°
2026-04-21 13:51 43.09234 12.76097 34953 ft 490 kts 160°
2026-04-21 13:52 43.03066 12.80065 34958 ft 490 kts 160°
2026-04-21 13:52 42.96886 12.84032 34940 ft 491 kts 160°
2026-04-21 13:53 42.90696 12.87997 34942 ft 491 kts 160°
2026-04-21 13:53 42.84520 12.91944 34951 ft 490 kts 160°
2026-04-21 13:54 42.78334 12.95889 34950 ft 491 kts 160°
2026-04-21 13:54 42.72141 12.99827 34932 ft 490 kts 160°
2026-04-21 13:55 42.65972 13.03745 34946 ft 488 kts 160°
2026-04-21 13:55 42.59825 13.07640 34943 ft 487 kts 160°
2026-04-21 13:56 42.53711 13.11504 34926 ft 487 kts 160°
2026-04-21 13:56 42.47559 13.15384 34946 ft 486 kts 160°
2026-04-21 13:57 42.41414 13.19250 34945 ft 487 kts 160°
2026-04-21 13:57 42.35270 13.23108 34942 ft 487 kts 160°
2026-04-21 13:58 42.29156 13.26941 34928 ft 488 kts 160°
2026-04-21 13:58 42.22998 13.30794 34930 ft 488 kts 160°
2026-04-21 13:59 42.16933 13.34947 34926 ft 494 kts 151°
2026-04-21 13:59 42.11636 13.40962 34942 ft 501 kts 140°
2026-04-21 14:00 42.06618 13.47486 34945 ft 501 kts 139°
2026-04-21 14:00 42.01564 13.53988 34539 ft 508 kts 140°
2026-04-21 14:01 41.98980 13.57262 33784 ft 511 kts 140°
2026-04-21 14:01 41.96392 13.60522 32982 ft 510 kts 140°
2026-04-21 14:01 41.93793 13.63787 32134 ft 511 kts 140°
2026-04-21 14:01 41.91191 13.67049 31210 ft 513 kts 140°
2026-04-21 14:02 41.88574 13.70326 30247 ft 515 kts 140°
2026-04-21 14:02 41.85950 13.73612 29249 ft 518 kts 140°
2026-04-21 14:02 41.83335 13.76886 28551 ft 511 kts 140°
2026-04-21 14:03 41.78183 13.83328 27048 ft 502 kts 140°
2026-04-21 14:03 41.75642 13.86500 26316 ft 496 kts 140°
2026-04-21 14:03 41.73129 13.89630 25594 ft 491 kts 140°
2026-04-21 14:03 41.70643 13.92725 24874 ft 486 kts 139°
2026-04-21 14:04 41.68187 13.95778 24130 ft 481 kts 139°
2026-04-21 14:04 41.65752 13.98802 23400 ft 474 kts 139°
2026-04-21 14:04 41.63351 14.01781 22685 ft 468 kts 139°
2026-04-21 14:04 41.61012 14.04779 21988 ft 463 kts 137°
2026-04-21 14:05 41.58819 14.07888 21313 ft 457 kts 134°
2026-04-21 14:05 41.56702 14.11032 20599 ft 452 kts 134°
2026-04-21 14:05 41.54622 14.14144 19906 ft 446 kts 134°
2026-04-21 14:05 41.52558 14.17203 19200 ft 442 kts 134°
2026-04-21 14:06 41.50519 14.20187 18493 ft 438 kts 135°
2026-04-21 14:06 41.48442 14.23202 17760 ft 434 kts 135°
2026-04-21 14:06 41.46408 14.26143 17099 ft 429 kts 135°
2026-04-21 14:06 41.44429 14.29003 16927 ft 410 kts 135°
2026-04-21 14:07 41.42529 14.31744 16727 ft 395 kts 136°
2026-04-21 14:07 41.40615 14.34193 16599 ft 378 kts 141°
2026-04-21 14:07 41.38655 14.36428 16434 ft 364 kts 143°
2026-04-21 14:07 41.36756 14.38575 16285 ft 352 kts 142°
2026-04-21 14:08 41.34927 14.40677 16143 ft 342 kts 142°
2026-04-21 14:08 41.33133 14.42684 15898 ft 333 kts 147°
2026-04-21 14:08 41.31202 14.44356 15532 ft 329 kts 153°
2026-04-21 14:08 41.29239 14.45910 15188 ft 327 kts 153°
2026-04-21 14:09 41.27201 14.47137 14805 ft 317 kts 173°
2026-04-21 14:09 41.25071 14.47236 14521 ft 300 kts 195°
2026-04-21 14:09 41.23153 14.46342 14162 ft 287 kts 215°
2026-04-21 14:09 41.21603 14.44805 13800 ft 270 kts 232°
2026-04-21 14:10 41.20499 14.42872 13476 ft 257 kts 241°
2026-04-21 14:10 41.19576 14.40913 13160 ft 248 kts 243°
2026-04-21 14:10 41.18627 14.39034 12824 ft 245 kts 229°
2026-04-21 14:10 41.17154 14.37907 12555 ft 248 kts 199°
2026-04-21 14:11 41.15457 14.37794 12291 ft 251 kts 175°
2026-04-21 14:11 41.13796 14.38587 12028 ft 258 kts 155°
2026-04-21 14:11 41.12233 14.39832 11762 ft 266 kts 151°
2026-04-21 14:11 41.10642 14.41189 11455 ft 276 kts 147°
2026-04-21 14:12 41.09339 14.43078 11092 ft 280 kts 118°
2026-04-21 14:12 41.08857 14.45514 10848 ft 270 kts 88°
2026-04-21 14:12 41.09236 14.47905 10700 ft 266 kts 63°
2026-04-21 14:12 41.10166 14.50045 10567 ft 271 kts 55°
2026-04-21 14:13 41.11200 14.52160 10402 ft 275 kts 54°
2026-04-21 14:13 41.12238 14.54297 10223 ft 276 kts 55°
2026-04-21 14:13 41.13263 14.56438 10046 ft 274 kts 56°
2026-04-21 14:13 41.14275 14.58569 9866 ft 272 kts 56°
2026-04-21 14:14 41.15272 14.60690 9713 ft 270 kts 57°
2026-04-21 14:14 41.16255 14.62808 9521 ft 268 kts 57°
2026-04-21 14:14 41.17226 14.64906 9391 ft 266 kts 57°
2026-04-21 14:14 41.18189 14.66987 9246 ft 264 kts 57°
2026-04-21 14:15 41.19152 14.69065 9082 ft 263 kts 57°
2026-04-21 14:15 41.20042 14.71178 8891 ft 261 kts 71°
2026-04-21 14:15 41.20202 14.73489 8749 ft 247 kts 102°
2026-04-21 14:15 41.19554 14.75550 8630 ft 241 kts 128°
2026-04-21 14:16 41.18401 14.77063 8511 ft 226 kts 147°
2026-04-21 14:16 41.17132 14.78148 8362 ft 209 kts 151°
2026-04-21 14:16 41.15919 14.79121 8248 ft 200 kts 152°
2026-04-21 14:16 41.14741 14.80037 8130 ft 197 kts 159°
2026-04-21 14:17 41.13434 14.80257 8061 ft 189 kts 195°
2026-04-21 14:17 41.12280 14.79432 7948 ft 192 kts 229°
2026-04-21 14:17 41.11512 14.78037 7854 ft 184 kts 239°
2026-04-21 14:17 41.10858 14.76629 7725 ft 176 kts 239°
2026-04-21 14:18 41.10229 14.75261 7595 ft 172 kts 239°
2026-04-21 14:18 41.09604 14.73905 7525 ft 174 kts 239°
2026-04-21 14:18 41.08968 14.72536 7460 ft 169 kts 239°
2026-04-21 14:18 41.08364 14.71241 7299 ft 159 kts 239°
2026-04-21 14:19 41.07789 14.70014 7206 ft 155 kts 239°
2026-04-21 14:19 41.07226 14.68814 7106 ft 153 kts 239°
2026-04-21 14:19 41.06666 14.67617 6995 ft 154 kts 239°
2026-04-21 14:19 41.06316 14.66809 6961 ft 152 kts 243°
2026-04-21 14:20 41.05799 14.65548 6761 ft 158 kts 241°
2026-04-21 14:20 41.05236 14.64284 6556 ft 158 kts 239°
2026-04-21 14:20 41.04479 14.62652 6260 ft 156 kts 239°
2026-04-21 14:20 41.03915 14.61455 6037 ft 151 kts 239°
2026-04-21 14:21 41.03353 14.60273 5872 ft 152 kts 238°
2026-04-21 14:21 41.02977 14.59478 5828 ft 152 kts 238°
2026-04-21 14:21 41.02408 14.58279 5564 ft 151 kts 238°
2026-04-21 14:21 41.01849 14.57110 5342 ft 150 kts 239°
2026-04-21 14:22 41.01305 14.55951 5179 ft 142 kts 238°
2026-04-21 14:22 41.00790 14.54865 4942 ft 137 kts 238°
2026-04-21 14:22 41.00278 14.53785 4718 ft 136 kts 238°
2026-04-21 14:22 40.99771 14.52711 4503 ft 138 kts 238°
2026-04-21 14:23 40.99263 14.51640 4319 ft 138 kts 238°
2026-04-21 14:23 40.98750 14.50559 4123 ft 138 kts 238°
2026-04-21 14:23 40.98240 14.49485 3894 ft 137 kts 238°
2026-04-21 14:23 40.97730 14.48406 3702 ft 140 kts 238°
2026-04-21 14:24 40.97218 14.47321 3484 ft 138 kts 238°
2026-04-21 14:24 40.96710 14.46243 3303 ft 139 kts 238°
2026-04-21 14:24 40.96196 14.45156 3083 ft 139 kts 238°
2026-04-21 14:24 40.95686 14.44075 2892 ft 138 kts 238°
2026-04-21 14:25 40.95166 14.42985 2671 ft 140 kts 237°
2026-04-21 14:25 40.94657 14.41906 2468 ft 137 kts 237°
2026-04-21 14:25 40.94155 14.40842 2274 ft 136 kts 237°
2026-04-21 14:25 40.93662 14.39785 2065 ft 135 kts 238°
2026-04-21 14:26 40.93158 14.38727 1893 ft 138 kts 237°
2026-04-21 14:26 40.92641 14.37661 1681 ft 135 kts 238°
2026-04-21 14:26 40.92162 14.36641 1465 ft 126 kts 240°
2026-04-21 14:26 40.91708 14.35665 1303 ft 124 kts 237°
2026-04-21 14:27 40.91244 14.34674 1119 ft 128 kts 238°
2026-04-21 14:27 40.90766 14.33635 886 ft 135 kts 238°
2026-04-21 14:27 40.90275 14.32606 706 ft 134 kts 237°
2026-04-21 14:27 40.89774 14.31566 518 ft 134 kts 238°
2026-04-21 14:28 40.89283 14.30524 319 ft 134 kts 238°
2026-04-21 14:28 40.88816 14.29533 256 ft 119 kts 237°
2026-04-21 14:28 40.88439 14.28735 274 ft 79 kts 238°
2026-04-21 14:28 40.88225 14.28280 285 ft 36 kts 238°
2026-04-21 14:29 40.88140 14.28104 289 ft 22 kts 237°
2026-04-21 14:29 40.88069 14.28050 291 ft 11 kts 166°
2026-04-21 14:29 40.88007 14.28098 291 ft 10 kts 148°
2026-04-21 14:29 40.87950 14.28125 292 ft 1 kts 184°
2026-04-21 14:30 40.87944 14.28133 292 ft 2 kts 111°
2026-04-21 14:30 40.87944 14.28154 291 ft 3 kts 92°
2026-04-21 14:30 40.87943 14.28188 291 ft 4 kts 93°
2026-04-21 14:30 40.87932 14.28227 290 ft 1 kts 137°
2026-04-21 14:31 40.87923 14.28229 290 ft 2 kts 168°
2026-04-21 14:31 40.87901 14.28229 291 ft 4 kts 182°
2026-04-21 14:31 40.87885 14.28227 291 ft 1 kts 186°
2026-04-21 14:31 40.87884 14.28227 291 ft 0 kts 186°